Location: ?ern� Novina
(50.6762°N, 14.8696°E)
Time: 12:24:51
(UTC+00:00)

FALCON 9 DEB - Pass Details

Date: 03 March 2021
Orbit: 370 x 390 km, 53.0° (Epoch: 16 April)

Event Time Altitude Azimuth Distance (km) Brightness Sun altitude
Rises 18:26:35 0° 282° (WNW) 2,302 8.6 -16.8°
Reaches altitude 10° 18:28:41 10° 287° (WNW) 1,444 7.1 -17.1°
Maximum altitude 18:31:53 57° 7° (N) 474 3.2 -17.6°
Enters shadow 18:32:25 48° 50° (NE) 527 3.2 -17.7°
